This demonstration page uses our WeatherBlox Daily Observations layout. Learn more.

Left ArrowRight Arrow

Hourly Observations for August 1, 2018

Temp ( °F °C ) Dew Point ( °F °C ) Humidity (%) Winds ( mph kmh ) Pressure ( in mb ) Visibility ( mi km ) Precip ( " mm )
12:16 am 00:16 Cloudy 64 18 64 18 100 100 N 7 11 29.97 1015 10 16 N/A
12:37 am 00:37 Cloudy 64 18 64 18 100 100 NNW 6 9 29.97 1015 10 16 N/A
12:56 am 00:56 Cloudy 64 18 64 18 100 100 N 5 7 29.97 1015 10 16 N/A
1:17 am 01:17 Cloudy 64 18 64 18 100 100 NW 3 6 29.97 1015 10 16 N/A
1:36 am 01:36 Cloudy 64 18 64 18 100 100 N N/A 29.97 1015 10 16 N/A
1:56 am 01:56 Cloudy 64 18 64 18 100 100 WNW 6 9 29.97 1015 10 16 N/A
2:17 am 02:17 Cloudy 64 18 64 18 100 100 NW 6 9 29.97 1015 10 16 N/A
2:36 am 02:36 Cloudy 64 18 64 18 100 100 WNW 5 7 29.97 1015 7 11 N/A
2:57 am 02:57 Cloudy 64 18 64 18 100 100 WNW 5 7 29.97 1015 7 11 N/A
3:16 am 03:16 Cloudy 64 18 64 18 100 100 NW 5 7 29.97 1015 7 11 N/A
3:36 am 03:36 Cloudy 64 18 64 18 100 100 NW 5 7 29.97 1015 7 11 N/A
3:57 am 03:57 Cloudy 64 18 64 18 100 100 NNW 6 9 29.97 1015 7 11 N/A
4:16 am 04:16 Cloudy 64 18 64 18 100 100 NW 3 6 29.97 1015 7 11 N/A
4:37 am 04:37 Cloudy 64 18 64 18 100 100 NW 6 9 29.97 1015 7 11 N/A
4:57 am 04:57 Cloudy 63 17 63 17 100 100 WNW 6 9 29.97 1015 7 11 N/A
5:16 am 05:16 Cloudy 63 17 63 17 100 100 NW 7 11 29.97 1015 5 8 N/A
5:37 am 05:37 Cloudy 63 17 63 17 100 100 N N/A 29.97 1015 5 8 N/A
5:56 am 05:56 Cloudy 63 17 63 17 100 100 N N/A 30.00 1016 4 6 N/A
6:16 am 06:16 Cloudy 63 17 63 17 100 100 N 3 6 30.00 1016 4 6 N/A
6:37 am 06:37 Cloudy 63 17 63 17 100 100 NNW 5 7 30.00 1016 4 6 N/A
6:56 am 06:56 Cloudy 63 17 63 17 100 100 N 3 6 30.00 1016 3 5 N/A
7:17 am 07:17 Cloudy 63 17 63 17 100 100 N N/A 30.00 1016 4 6 N/A
7:36 am 07:36 Cloudy 63 17 63 17 100 100 N N/A 30.00 1016 5 8 N/A
7:56 am 07:56 Cloudy 64 18 64 18 100 100 NNW 3 6 30.00 1016 4 6 N/A
8:17 am 08:17 Cloudy 64 18 64 18 100 100 NNE 3 6 30.00 1016 5 8 N/A
8:36 am 08:36 Cloudy 64 18 64 18 100 100 N 5 7 30.00 1016 5 8 N/A
8:57 am 08:57 Cloudy 64 18 64 18 100 100 N N/A 30.03 1017 5 8 N/A
9:16 am 09:16 Cloudy 64 18 64 18 100 100 N N/A 30.03 1017 7 11 N/A
9:37 am 09:37 Mostly Cloudy 66 19 66 19 100 100 W 5 7 30.03 1017 7 11 N/A
9:56 am 09:56 Mostly Cloudy 68 20 66 19 94 94 WNW 5 7 30.03 1017 7 11 N/A
10:16 am 10:16 Mostly Cloudy 68 20 66 19 94 94 W 3 6 30.03 1017 10 16 N/A
10:37 am 10:37 Mostly Cloudy 68 20 66 19 94 94 N N/A 30.03 1017 10 16 N/A
10:56 am 10:56 Mostly Cloudy 70 21 68 20 94 94 W 3 6 30.00 1016 10 16 N/A
11:17 am 11:17 Mostly Cloudy 70 21 66 19 88 88 N N/A 30.00 1016 10 16 N/A
11:36 am 11:36 Cloudy 70 21 68 20 94 94 NW 3 6 30.00 1016 10 16 N/A
11:56 am 11:56 Mostly Cloudy 70 21 66 19 88 88 N N/A 30.00 1016 10 16 N/A
12:17 pm 12:17 Cloudy 72 22 68 20 88 88 N N/A 30.00 1016 10 16 N/A
12:36 pm 12:36 Mostly Cloudy 72 22 68 20 88 88 N N/A 30.00 1016 10 16 N/A
12:57 pm 12:57 Partly Cloudy 73 23 68 20 83 83 N N/A 30.00 1016 10 16 N/A
1:16 pm 13:16 Partly Cloudy 75 24 68 20 78 78 N N/A 30.00 1016 10 16 N/A
1:36 pm 13:36 Mostly Cloudy 73 23 68 20 83 83 N 3 6 30.00 1016 10 16 N/A
1:57 pm 13:57 Mostly Cloudy 73 23 68 20 83 83 N N/A 30.00 1016 10 16 N/A
2:16 pm 14:16 Mostly Cloudy 73 23 68 20 83 83 N N/A 30.00 1016 10 16 N/A
2:37 pm 14:37 Partly Cloudy 75 24 66 19 74 74 N N/A 30.00 1016 10 16 N/A
2:57 pm 14:57 Sunny 75 24 66 19 74 74 N N/A 30.00 1016 10 16 N/A
3:16 pm 15:16 Mostly Cloudy 75 24 66 19 74 74 N N/A 30.00 1016 10 16 N/A
3:37 pm 15:37 Cloudy 75 24 66 19 74 74 N N/A 30.00 1016 10 16 N/A
3:56 pm 15:56 Cloudy 73 23 68 20 83 83 N N/A 30.00 1016 10 16 N/A
4:16 pm 16:16 Cloudy 77 25 68 20 74 74 N N/A 30.00 1016 10 16 N/A
4:37 pm 16:37 Cloudy 75 24 66 19 74 74 WNW 6 9 30.00 1016 10 16 N/A
4:56 pm 16:56 Cloudy 68 20 68 20 100 100 W 10 17 30.03 1017 2 3 N/A
5:16 pm 17:16 Cloudy 68 20 68 20 100 100 WNW 3 6 30.03 1017 5 8 N/A
5:37 pm 17:37 Mostly Cloudy 70 21 70 21 100 100 N N/A 30.00 1016 10 16 N/A
5:56 pm 17:56 Mostly Cloudy 73 23 66 19 78 78 N N/A 30.00 1016 10 16 N/A
6:17 pm 18:17 Partly Cloudy 73 23 70 21 89 89 N N/A 30.00 1016 10 16 N/A
6:37 pm 18:37 Sunny 73 23 68 20 83 83 N N/A 29.97 1015 10 16 N/A
6:56 pm 18:56 Sunny 73 23 68 20 83 83 N N/A 29.97 1015 10 16 N/A
7:17 pm 19:17 Sunny 73 23 68 20 83 83 N N/A 29.97 1015 10 16 N/A
7:36 pm 19:36 Sunny 73 23 68 20 83 83 N N/A 29.97 1015 10 16 N/A
7:56 pm 19:56 Sunny 73 23 68 20 83 83 N N/A 29.97 1015 10 16 N/A
8:17 pm 20:17 Sunny 72 22 70 21 94 94 N N/A 29.97 1015 10 16 N/A
8:36 pm 20:36 Partly Cloudy 72 22 70 21 94 94 N N/A 30.00 1016 10 16 N/A
8:57 pm 20:57 Sunny 68 20 68 20 100 100 N N/A 30.03 1017 10 16 N/A
9:17 pm 21:17 Clear 66 19 66 19 100 100 N N/A 30.03 1017 10 16 N/A
9:36 pm 21:36 Clear 64 18 64 18 100 100 N N/A 30.03 1017 10 16 N/A
9:57 pm 21:57 Clear 64 18 64 18 100 100 SSE 3 6 30.03 1017 10 16 N/A
10:16 pm 22:16 Clear 64 18 64 18 100 100 N N/A 30.03 1017 10 16 N/A
10:36 pm 22:36 Clear 63 17 63 17 100 100 N N/A 30.03 1017 10 16 N/A
10:57 pm 22:57 Clear 63 17 63 17 100 100 N N/A 30.06 1018 10 16 N/A
11:16 pm 23:16 Clear 63 17 63 17 100 100 N N/A 30.03 1017 10 16 N/A
11:37 pm 23:37 Mostly Cloudy 63 17 63 17 100 100 N N/A 30.03 1017 2 3 N/A
11:56 pm 23:56 Mostly Cloudy 63 17 63 17 100 100 N N/A 30.03 1017 1 2 N/A

Powered by AerisWeather